Regional Weather Roundup
Issued by NWS Newport/Morehead, NC

Current Version | Previous Version | Graphics & Text | Print | Product List | Glossary Off
Versions: 1 2 3 4 5 6 7 8 9 10 11 12 13 14 15 16 17 18 19 20 21 22 23 24 25 26 27 28 29 30 31 32 33 34 35 36 37 38 39 40 41 42 43 44 45 46 47 48 49 50

000
ASUS42 KMHX 091424
RWRMHX
WEATHER ROUNDUP FOR EASTERN NORTH CAROLINA
NATIONAL WEATHER SERVICE NEWPORT/MOREHEAD CITY NC
900 AM EST FRI DEC 09 2016

NOTE: "FAIR" INDICATES FEW OR NO CLOUDS BELOW 12,000 FEET
WITH NO SIGNIFICANT WEATHER AND/OR OBSTRUCTIONS TO VISIBILITY

NCZ015>017-031-032-045>047-102-103-091500-
NORTH COAST

CITY           SKY/WX    TMP DP  RH WIND       PRES   REMARKS
EDENTON        SUNNY     37  23  58 N10       30.36R
ELIZABETH CITY SUNNY     35  23  61 NW10      30.34R
KITTY HAWK     SUNNY     37  26  62 NW9G20    30.31R
MANTEO         SUNNY     37  20  51 N14G22    30.33R

$$

NCZ045>047-081-094-103-104-091500-
CENTRAL COAST

CITY           SKY/WX    TMP DP  RH WIND       PRES   REMARKS
FRISCO         SUNNY     41  24  51 VRB5      30.31R

$$

NCZ095-097-098-100-101-091500-
SOUTHERN COAST

CITY           SKY/WX    TMP DP  RH WIND       PRES   REMARKS
BEAUFORT       SUNNY     39  22  50 N16       30.35R
CEDAR ISLAND   NOT AVBL
JACKSONVILLE   MOSUNNY   38  19  46 NW10      30.37R
PINEY ISLAND   SUNNY    N/A N/A N/A N14G23    30.34R
WILMINGTON     SUNNY     38  19  46 N13G20    30.38R


$$

NCZ011>013-027>030-043-044-078>080-089-090>093-098-091500-
COASTAL PLAIN

CITY           SKY/WX    TMP DP  RH WIND       PRES   REMARKS
AHOSKIE        SUNNY     33  18  54 N5        30.37R
CLINTON        SUNNY     36  21  53 NW6       30.40R
ELIZABETHTOWN  SUNNY     37  21  53 NW5       30.40R
GOLDSBORO      SUNNY     36  16  45 NW7       30.36R
GREENVILLE     SUNNY     36  21  55 N8        30.38R
HAVELOCK       SUNNY     39  20  46 N16       30.37R
KENANSVILLE    SUNNY     37  19  48 NW12      30.39R
KINSTON        SUNNY     36  19  51 NW7       30.38R
NEW BERN       SUNNY     37  20  50 N10       30.37R
RICHLANDS      SUNNY     36  21  54 N8        30.38R
ROCKY MOUNT    SUNNY     34  19  54 NW12      30.38R
WASHINGTON     MOSUNNY   35  21  55 NW8       30.37R
WHITEVILLE     SUNNY     37  20  50 CALM      30.40R

$$

AMZ130-135-150-152-154-156-158-170-250-252-270-ANZ085-086-088-633-658-670-091500-
MARINE OBSERVATIONS

STATION/POSITION TIME  TEMP    WIND        PRES    WAVE   SWELL
                       AIR SEA DIR/SP/G            HT/PER HT/PER
                 (UTC) (F)     (DEG/KT/KT) (MB)    (FT/S) (FT/S)
CHESAPEAKE LIGHT NOT AVBL
64 E VA BEACH    1350   40 58  350/ 17/ 25 1024.4    8/ 6   2/15
DUCK             1400   37 53  330/ 19/ 25 1025.8
2 E DUCK         NOT AVBL
OREGON INLET     1400          310/ 16/ 21 1026.3
13E OREGON INLT  NOT AVBL
HATTERAS CG      1400   40 55  340/ 15/ 19 1026.3
DIAMOND BUOY     1350   44 75  350/ 17/ 23 1025.7    5/ 7   2/ 9
CAPE LOOKOUT     1400   38     330/ 17/ 21 1027.1
BEAUFORT LAB     1400   38 53  350/ 12/ 16 1026.6
30 SE NEW RVR IN 1408   43 69   10/ 17/ 29 1027.6
30 SE NEW RVR IN NOT AVBL
27 SE WRIGHTSVLE 1408   43 67   20/ 17/ 25 1027.5
5 SE WRIGHTSVLE  1308   38 61  360/ 19/ 37 1027.2
225 S CAPE HAT   1350   62 74  360/ 17/ 23 1022.1    7/ 7   3/11
41 SE CHARLESTON 1350   50 73   10/ 19/ 25 1027.2    6/ 6

$$




USA.gov is the U.S. government's official web portal to all federal, state and local government web resources and services.